Find Starlink 30600

NORAD ID: 58100 Int'l Des: 2023-161 Owner: SPXS Country: US Constellation: starlink operational
LEOCIRCULAR

現在のビュー

3D地球を読み込み中...

About Starlink 30600

Starlink 30600 (NORAD 58100) is a starlink constellation satellite (v2 mini) launched Oct 21, 2023 by SPXS of US. It operates in LEO, CIRCULAR orbit with a mass of 730.00 kg.

Starlink 30600について

説明を読み込み中...

次回通過

Passes for default location (London). Set your location on the main map for personalized predictions.

高度履歴

Loading altitude history...

軌道要素

1 58100U 23161D 26173.34664321 -.00000526 00000-0 -44323-5 0 9991
2 58100 53.1611 38.7988 0001266 94.5887 265.5260 15.34392508150453
Epoch: Jun 22, 2026 • Age: 26 hours

現在のステータス

高度 477.5 km
速度 7.63 km/s
衛星直下点 -42.28°S, 170.63°W
打ち上げ日 Oct 21, 2023
運用期間 2.6 years
タイプ internet

技術仕様

分類 Payload
質量 730.00 kg
乾燥質量 700.00 kg
総質量 730.00 kg
長さ 0.30 m
直径 4.10 m
スパン 29.00 m
形状 Box + pan
製造者 SPXS
バスタイプ Starlink V2M
フェーズステータス In Orbit
所有者/国 SPXS/US

Most Searched